Satellite: INMARSAT 3-F1
Catalog number: 23839
Epoch time:      103105.59477161
Element set:     913 
Inclination:        0.0987 deg
RA of node:        43.7781 deg
Eccentricity:    0.0004359
Arg of perigee:   338.7382 deg
Mean anomaly:      98.8519 deg
Mean motion:    1.00275070 rev/day
Decay rate:    1.1000E-007 rev/day^2
Epoch rev:            2577
Checksum:              302

Satellite: ASTRA 1F
Catalog number: 23842
Epoch time:      103099.00000000
Element set:     566 
Inclination:        0.0122 deg
RA of node:       319.8851 deg
Eccentricity:    0.0002995
Arg of perigee:    65.1991 deg
Mean anomaly:     190.9799 deg
Mean motion:    1.00273184 rev/day
Decay rate:    1.2299E-006 rev/day^2
Epoch rev:            2561
Checksum:              276

Satellite: JAS 2
Catalog number: 24278
Epoch time:      103105.89726809
Element set:     580 
Inclination:       98.5454 deg
RA of node:       249.4903 deg
Eccentricity:    0.0351473
Arg of perigee:    70.4724 deg
Mean anomaly:     293.4018 deg
Mean motion:   13.52879057 rev/day
Decay rate:    4.1999E-007 rev/day^2
Epoch rev:           32892
Checksum:              354

Satellite: UNAMSAT
Catalog number: 24305
Epoch time:      103106.38416231
Element set:     678 
Inclination:       82.9352 deg
RA of node:       220.7663 deg
Eccentricity:    0.0031748
Arg of perigee:    46.4702 deg
Mean anomaly:     313.9080 deg
Mean motion:   13.73458600 rev/day
Decay rate:    2.0499E-006 rev/day^2
Epoch rev:           33128
Checksum:              291

Satellite: INMARSAT 3-F2
Catalog number: 24307
Epoch time:      103105.97249432
Element set:     111 
Inclination:        0.0888 deg
RA of node:        21.6490 deg
Eccentricity:    0.0005387
Arg of perigee:   345.9615 deg
Mean anomaly:     170.7354 deg
Mean motion:    1.00272395 rev/day
Decay rate:   -1.2699E-006 rev/day^2
Epoch rev:            2418
Checksum:              291

Satellite: HOT BIRD 2
Catalog number: 24665
Epoch time:      103104.95823611
Element set:     349 
Inclination:        0.0337 deg
RA of node:       189.6656 deg
Eccentricity:    0.0009067
Arg of perigee:   269.9979 deg
Mean anomaly:     100.9111 deg
Mean motion:    1.00271489 rev/day
Decay rate:    9.9999E-009 rev/day^2
Epoch rev:            2381
Checksum:              334

Satellite: INMARSAT 3-F3
Catalog number: 24674
Epoch time:      103105.60032749
Element set:     28 
Inclination:        0.0807 deg
RA of node:        50.2728 deg
Eccentricity:    0.0004079
Arg of perigee:   326.3864 deg
Mean anomaly:     220.8784 deg
Mean motion:    1.00271842 rev/day
Decay rate:    3.4999E-007 rev/day^2
Epoch rev:            2314
Checksum:              287

Satellite: GOES 10
Catalog number: 24786
Epoch time:      103105.27162601
Element set:     640 
Inclination:        0.2816 deg
RA of node:       102.7223 deg
Eccentricity:    0.0003954
Arg of perigee:   310.9971 deg
Mean anomaly:     111.7923 deg
Mean motion:    1.00280517 rev/day
Decay rate:    8.3999E-007 rev/day^2
Epoch rev:            2189
Checksum:              279

Satellite: INMARSAT 3-F4
Catalog number: 24819
Epoch time:      103106.25665918
Element set:     909 
Inclination:        0.0622 deg
RA of node:        53.9570 deg
Eccentricity:    0.0003033
Arg of perigee:   319.9581 deg
Mean anomaly:     228.4889 deg
Mean motion:    1.00271117 rev/day
Decay rate:   -2.9099E-006 rev/day^2
Epoch rev:            2157
Checksum:              307

Satellite: FENGYUN 2A
Catalog number: 24834
Epoch time:      103105.82564728
Element set:     0 
Inclination:        2.7099 deg
RA of node:        87.7863 deg
Eccentricity:    0.0000430
Arg of perigee:   302.0415 deg
Mean anomaly:     197.4667 deg
Mean motion:    1.00269869 rev/day
Decay rate:   -2.0099E-006 rev/day^2
Epoch rev:            2140
Checksum:              287

Satellite: HOT BIRD 3
Catalog number: 24931
Epoch time:      103099.84635997
Element set:     430 
Inclination:        0.0632 deg
RA of node:        21.1145 deg
Eccentricity:    0.0006301
Arg of perigee:   353.2368 deg
Mean anomaly:     140.9901 deg
Mean motion:    1.00272510 rev/day
Decay rate:    8.8000E-007 rev/day^2
Epoch rev:            2058
Checksum:              255

Satellite: METEOSAT 7
Catalog number: 24932
Epoch time:      103106.66781050
Element set:     273 
Inclination:        0.3463 deg
RA of node:        78.5447 deg
Eccentricity:    0.0000340
Arg of perigee:   288.2233 deg
Mean anomaly:      77.5636 deg
Mean motion:    1.00269622 rev/day
Decay rate:   -1.1999E-007 rev/day^2
Epoch rev:            2059
Checksum:              418

Satellite: ASTRA 1G
Catalog number: 25071
Epoch time:      103099.00000000
Element set:     398 
Inclination:        0.0122 deg
RA of node:       319.8851 deg
Eccentricity:    0.0002995
Arg of perigee:    65.1991 deg
Mean anomaly:     190.9189 deg
Mean motion:    1.00273184 rev/day
Decay rate:    1.2199E-006 rev/day^2
Epoch rev:            1963
Checksum:              272

Satellite: INMARSAT 3-F5
Catalog number: 25153
Epoch time:      103105.34891302
Element set:     871 
Inclination:        0.4534 deg
RA of node:       355.8620 deg
Eccentricity:    0.0003036
Arg of perigee:    23.6980 deg
Mean anomaly:     334.1303 deg
Mean motion:    1.00273319 rev/day
Decay rate:    9.9999E-009 rev/day^2
Epoch rev:            1905
Checksum:              287

Satellite: HOT BIRD 4
Catalog number: 25237
Epoch time:      103099.84635997
Element set:     334 
Inclination:        0.0316 deg
RA of node:       347.7932 deg
Eccentricity:    0.0006645
Arg of perigee:    69.4486 deg
Mean anomaly:      98.0254 deg
Mean motion:    1.00270260 rev/day
Decay rate:    8.7000E-007 rev/day^2
Epoch rev:            1904
Checksum:              300

Satellite: NOAA 15
Catalog number: 25338
Epoch time:      103106.64282794
Element set:     81 
Inclination:       98.5475 deg
RA of node:       127.2422 deg
Eccentricity:    0.0011008
Arg of perigee:   146.0560 deg
Mean anomaly:     214.1325 deg
Mean motion:   14.24272484 rev/day
Decay rate:    1.7099E-006 rev/day^2
Epoch rev:           25592
Checksum:              297

Satellite: RESURS O1-N4
Catalog number: 25394
Epoch time:      103106.13302341
Element set:     495 
Inclination:       98.6206 deg
RA of node:       182.9891 deg
Eccentricity:    0.0000832
Arg of perigee:   344.6431 deg
Mean anomaly:      15.4726 deg
Mean motion:   14.23899198 rev/day
Decay rate:    7.0999E-007 rev/day^2
Epoch rev:           24758
Checksum:              337

Satellite: TMSAT
Catalog number: 25396
Epoch time:      103105.90688927
Element set:     925 
Inclination:       98.6158 deg
RA of node:       181.8767 deg
Eccentricity:    0.0002117
Arg of perigee:   354.2794 deg
Mean anomaly:       5.8366 deg
Mean motion:   14.23529548 rev/day
Decay rate:   -4.3000E-007 rev/day^2
Epoch rev:           24754
Checksum:              336

Satellite: TECHSAT 1B
Catalog number: 25397
Epoch time:      103105.95069554
Element set:     167 
Inclination:       98.6139 deg
RA of node:       180.7317 deg
Eccentricity:    0.0001503
Arg of perigee:    23.8222 deg
Mean anomaly:     336.3025 deg
Mean motion:   14.22973461 rev/day
Decay rate:    5.3000E-007 rev/day^2
Epoch rev:           24751
Checksum:              288

Satellite: ASTRA 2A
Catalog number: 25462
Epoch time:      103099.00000000
Element set:     540 
Inclination:        0.0385 deg
RA of node:       308.7109 deg
Eccentricity:    0.0004824
Arg of perigee:   280.8620 deg
Mean anomaly:     355.4582 deg
Mean motion:    1.00272094 rev/day
Decay rate:    1.5199E-006 rev/day^2
Epoch rev:            1693
Checksum:              255

Satellite: EUTELSAT W2
Catalog number: 25491
Epoch time:      103105.84269355
Element set:     598 
Inclination:        0.0466 deg
RA of node:       135.2279 deg
Eccentricity:    0.0068238
Arg of perigee:   294.0685 deg
Mean anomaly:      93.0438 deg
Mean motion:    1.00275633 rev/day
Decay rate:    9.9999E-009 rev/day^2
Epoch rev:            1661
Checksum:              332

Satellite: HOT BIRD 5
Catalog number: 25495
Epoch time:      103099.85365163
Element set:     508 
Inclination:        0.0280 deg
RA of node:        82.8420 deg
Eccentricity:    0.0010247
Arg of perigee:   215.0657 deg
Mean anomaly:     232.9622 deg
Mean motion:    1.00274308 rev/day
Decay rate:    1.4600E-006 rev/day^2
Epoch rev:            1652
Checksum:              265

Satellite: SEDSAT 1
Catalog number: 25509
Epoch time:      103105.60084785
Element set:     824 
Inclination:       31.4287 deg
RA of node:       196.7291 deg
Eccentricity:    0.0357039
Arg of perigee:    72.1939 deg
Mean anomaly:     291.7305 deg
Mean motion:   14.27483723 rev/day
Decay rate:    3.8399E-006 rev/day^2
Epoch rev:           23332
Checksum:              327

Satellite: PAN SAT
Catalog number: 25520
Epoch time:      103105.65515293
Element set:     664 
Inclination:       28.4628 deg
RA of node:       210.2013 deg
Eccentricity:    0.0006224
Arg of perigee:   243.3053 deg
Mean anomaly:     116.6888 deg
Mean motion:   15.14178894 rev/day
Decay rate:    1.7219E-005 rev/day^2
Epoch rev:           24609
Checksum:              396

Satellite: ISS (ZARYA)
Catalog number: 25544
Epoch time:      103106.62856203
Element set:     898 
Inclination:       51.6343 deg
RA of node:       329.4475 deg
Eccentricity:    0.0006466
Arg of perigee:    27.2648 deg
Mean anomaly:      12.8303 deg
Mean motion:   15.58206158 rev/day
Decay rate:    2.3432E-004 rev/day^2
Epoch rev:           25140
Checksum:              291

